This demonstration page uses our WeatherBlox Daily Observations layout. Learn more.

Left ArrowRight Arrow

40.92501, -98.34201

Hourly Observations for July 1, 2021

Temp ( °F °C ) Dew Point ( °F °C ) Humidity (%) Winds ( mph kmh ) Pressure ( in mb ) Visibility ( mi km ) Precip ( " mm )
12:53 am 00:53 Clear 73 22.8 66 18.9 79 79 Calm 30.08 1019 10 16 0.00 0.00
1:53 am 01:53 Cloudy 71 21.7 66 18.9 84 84 Calm 30.08 1019 7 11 0.00 0.00
2:53 am 02:53 Mostly Cloudy with Mist and Fog 70 21.1 66 18.9 87 87 NNE 3 6 30.06 1018 6 10 0.00 0.00
3:53 am 03:53 Clear with Mist and Fog 67 19.4 64 17.8 91 91 NNE 3 6 30.06 1018 4 6 0.00 0.00
4:22 am 04:22 Clear with Mist and Fog 66 18.9 64 17.8 93 93 N 5 7 30.05 1018 3 4 0.00 0.00
4:53 am 04:53 Clear with Mist and Fog 65 18.3 62 16.7 90 90 N 3 6 30.07 1018 2 3 0.00 0.00
5:50 am 05:50 Clear with Mist and Fog 64 18 63 17 94 94 Calm 30.07 1018 2 2 0.00 0.00
5:53 am 05:53 Clear with Mist and Fog 65 18.3 62 16.7 90 90 Calm 30.09 1019 2 2 0.00 0.00
6:53 am 06:53 Sunny with Mist and Fog 65 18.3 62 16.7 90 90 N 3 6 30.10 1019 5 8 0.00 0.00
7:53 am 07:53 Hazy 69 20.6 63 17.2 81 81 NE 3 6 30.10 1019 5 8 0.00 0.00
8:53 am 08:53 Sunny 73 22.8 64 17.8 74 74 NE 8 13 30.10 1019 7 11 0.00 0.00
9:53 am 09:53 Sunny 78 25.6 64 17.8 62 62 ENE 7 11 30.11 1020 10 16 0.00 0.00
10:53 am 10:53 Sunny 80 26.7 62 16.7 54 54 E 10 17 30.12 1020 10 16 0.00 0.00
11:53 am 11:53 Sunny 82 27.8 61 16.1 49 49 E 9 15 30.11 1020 10 16 0.00 0.00
12:53 pm 12:53 Partly Cloudy 81 27.2 60 15.6 49 49 ESE 7 11 30.11 1020 10 16 0.00 0.00
1:53 pm 13:53 Mostly Cloudy 82 27.8 61 16.1 49 49 SE 8 13 30.10 1019 10 16 0.00 0.00
2:53 pm 14:53 Partly Cloudy 83 28.3 59 15 44 44 ESE 6 9 30.08 1019 10 16 0.00 0.00
3:53 pm 15:53 Mostly Sunny 85 29.4 60 15.6 43 43 ESE 7 11 30.07 1018 10 16 0.00 0.00
4:53 pm 16:53 Partly Cloudy 84 28.9 60 15.6 44 44 ENE 9 15 30.06 1018 10 16 0.00 0.00
5:53 pm 17:53 Mostly Sunny 84 28.9 60 15.6 44 44 ESE 12 19 30.06 1018 10 16 0.00 0.00
6:53 pm 18:53 Sunny 82 27.8 60 15.6 47 47 E 14 22 30.06 1018 10 16 0.00 0.00
7:53 pm 19:53 Sunny 81 27.2 59 15 47 47 ESE 8 13 30.07 1018 10 16 0.00 0.00
8:53 pm 20:53 Sunny 76 24.4 61 16.1 60 60 E 7 11 30.08 1019 10 16 0.00 0.00
9:53 pm 21:53 Clear 72 22.2 62 16.7 71 71 E 5 7 30.09 1019 10 16 0.00 0.00
10:53 pm 22:53 Clear 70 21.1 62 16.7 76 76 ESE 3 6 30.11 1020 10 16 0.00 0.00
11:53 pm 23:53 Clear 68 20 61 16.1 78 78 Calm 30.11 1020 10 16 0.00 0.00

Powered by AerisWeather